| time (UTC) | temp C | wind direction | speed KPH | gust KPH | rain 1hr cm | rain 24hr cm | rain mn cm | humidity % | barometer mb |
| 20260901134000 | 28 | 141 | 1.6 | 4.8 | 0.00 | 0.00 | 0.00 | 67 | 1015.5 |
| 20260901132948 | 28 | 135 | 3.2 | 9.7 | 0.00 | 0.00 | 0.00 | 68 | 1015.5 |
| 20260901131936 | 27 | 105 | 1.6 | 3.2 | 0.00 | 0.00 | 0.00 | 70 | 1015.5 |
| 20260901130925 | 26 | 121 | 1.6 | 3.2 | 0.00 | 0.00 | 0.00 | 73 | 1015.5 |
| 20260901123843 | 23 | 128 | 1.6 | 3.2 | 0.00 | 0.00 | 0.00 | 81 | 1015.5 |
| 20260901122825 | 22 | 150 | 1.6 | 3.2 | 0.00 | 0.00 | 0.00 | 84 | 1015.5 |
| 20260901121806 | 22 | 110 | 1.6 | 1.6 | 0.00 | 0.00 | 0.00 | 88 | 1015.5 |
| 20260901120750 | 21 | 101 | 1.6 | 1.6 | 0.00 | 0.00 | 0.00 | 93 | 1015.5 |
| 20260901110604 | 21 | 205 | 1.6 | 1.6 | 0.00 | 0.00 | 0.00 | 95 | 1015.5 |
| 20260901104540 | 20 | 193 | 1.6 | 1.6 | 0.00 | 0.00 | 0.00 | 96 | 1015.5 |
| 20260901102533 | 21 | 145 | 1.6 | 1.6 | 0.00 | 0.00 | 0.00 | 94 | 1015.5 |
| 20260901095524 | 21 | 137 | 1.6 | 1.6 | 0.00 | 0.00 | 0.00 | 93 | 1015.5 |
| 20260901094511 | 21 | 167 | 1.6 | 1.6 | 0.00 | 0.00 | 0.00 | 93 | 1015.5 |
| 20260901093500 | 21 | 152 | 1.6 | 1.6 | 0.00 | 0.00 | 0.00 | 92 | 1015.5 |
| 20260901092448 | 21 | 196 | 1.6 | 1.6 | 0.00 | 0.00 | 0.00 | 92 | 1015.5 |
| 20260901091436 | 21 | 224 | 1.6 | 1.6 | 0.00 | 0.00 | 0.00 | 92 | 1015.5 |
| 20260901085413 | 21 | 162 | 0.0 | 1.6 | 0.00 | 0.00 | 0.00 | 90 | 1015.5 |
| 20260901084402 | 21 | 288 | 1.6 | 1.6 | 0.00 | 0.00 | 0.00 | 90 | 1015.5 |
| 20260901083350 | 21 | 324 | 1.6 | 1.6 | 0.00 | 0.00 | 0.00 | 91 | 1015.5 |
| 20260901082338 | 22 | 149 | 1.6 | 1.6 | 0.00 | 0.00 | 0.00 | 91 | 1015.5 |
| 20260901081327 | 22 | 230 | 1.6 | 1.6 | 0.00 | 0.00 | 0.00 | 90 | 1015.5 |
| 20260901080315 | 22 | 214 | 1.6 | 1.6 | 0.00 | 0.00 | 0.00 | 87 | 1015.5 |
| 20260901075307 | 22 | 307 | 1.6 | 1.6 | 0.00 | 0.00 | 0.00 | 86 | 1015.5 |
| 20260901074252 | 22 | 288 | 1.6 | 1.6 | 0.00 | 0.00 | 0.00 | 86 | 1015.5 |
| 20260901070207 | 22 | 303 | 1.6 | 1.6 | 0.00 | 0.00 | 0.00 | 84 | 1015.5 |
| 20260901065154 | 23 | 228 | 1.6 | 1.6 | 0.00 | 0.00 | 0.00 | 84 | 1015.5 |
| 20260901064143 | 23 | 317 | 1.6 | 1.6 | 0.00 | 0.00 | 0.00 | 83 | 1015.5 |
| 20260901063131 | 23 | 48 | 1.6 | 1.6 | 0.00 | 0.00 | 0.00 | 82 | 1015.5 |
| 20260901062121 | 23 | 141 | 1.6 | 3.2 | 0.00 | 0.00 | 0.00 | 81 | 1015.5 |
| 20260901060057 | 24 | 148 | 3.2 | 4.8 | 0.00 | 0.00 | 0.00 | 79 | 1015.5 |
| 20260901054050 | 24 | 156 | 3.2 | 4.8 | 0.00 | 0.00 | 0.00 | 79 | 1015.5 |
| 20260901053039 | 24 | 152 | 3.2 | 4.8 | 0.00 | 0.00 | 0.00 | 79 | 1015.5 |
| 20260901052027 | 24 | 150 | 3.2 | 4.8 | 0.00 | 0.00 | 0.00 | 80 | 1015.5 |
| 20260901051015 | 24 | 149 | 3.2 | 4.8 | 0.00 | 0.00 | 0.00 | 80 | 1015.5 |
| 20260901043941 | 25 | 153 | 3.2 | 6.4 | 0.00 | 0.00 | 0.00 | 76 | 1015.5 |
| 20260901041918 | 25 | 155 | 4.8 | 6.4 | 0.00 | 0.00 | 0.00 | 75 | 1015.5 |
| 20260901040906 | 25 | 154 | 4.8 | 4.8 | 0.00 | 0.00 | 0.00 | 74 | 1015.5 |
| 20260901035855 | 26 | 151 | 4.8 | 8.0 | 0.00 | 0.00 | 0.00 | 73 | 1015.5 |
| 20260901034843 | 26 | 154 | 4.8 | 8.0 | 0.00 | 0.00 | 0.00 | 72 | 1015.5 |
| 20260901033831 | 26 | 152 | 4.8 | 8.0 | 0.00 | 0.00 | 0.00 | 71 | 1015.5 |
| 20260901032820 | 26 | 152 | 6.4 | 9.7 | 0.00 | 0.00 | 0.00 | 71 | 1015.5 |
| 20260901031808 | 26 | 150 | 4.8 | 8.0 | 0.00 | 0.00 | 0.00 | 70 | 1015.5 |
| 20260901030757 | 26 | 153 | 4.8 | 6.4 | 0.00 | 0.00 | 0.00 | 70 | 1015.5 |
| 20260901024734 | 26 | 151 | 4.8 | 9.7 | 0.00 | 0.00 | 0.00 | 70 | 1015.5 |
| 20260901021714 | 26 | 152 | 4.8 | 6.4 | 0.00 | 0.00 | 0.00 | 72 | 1015.5 |
| 20260901020703 | 26 | 154 | 3.2 | 4.8 | 0.00 | 0.00 | 0.00 | 74 | 1015.5 |
| 20260901015651 | 26 | 150 | 3.2 | 4.8 | 0.00 | 0.00 | 0.00 | 75 | 1015.5 |
| 20260901013644 | 26 | 158 | 3.2 | 3.2 | 0.00 | 0.00 | 0.00 | 74 | 1015.5 |
| 20260901012633 | 26 | 160 | 1.6 | 3.2 | 0.00 | 0.00 | 0.00 | 72 | 1015.5 |
| 20260901011622 | 27 | 163 | 1.6 | 3.2 | 0.00 | 0.00 | 0.00 | 72 | 1015.5 |
| 20260901010610 | 27 | 160 | 1.6 | 3.2 | 0.00 | 0.00 | 0.00 | 71 | 1015.5 |
| 20260901004604 | 27 | 148 | 1.6 | 4.8 | 0.00 | 0.00 | 0.00 | 71 | 1017.0 |
| 20260901003552 | 28 | 153 | 1.6 | 3.2 | 0.00 | 0.00 | 0.00 | 69 | 1017.0 |
| 20260901002540 | 29 | 191 | 1.6 | 1.6 | 0.00 | 0.00 | 0.00 | 64 | 1017.0 |
| 20260901001529 | 30 | 199 | 1.6 | 3.2 | 0.00 | 0.00 | 0.00 | 59 | 1017.0 |
| 20260901000517 | 31 | 176 | 1.6 | 3.2 | 0.00 | 0.00 | 0.00 | 56 | 1017.0 |
| 20260831235506 | 31 | 166 | 3.2 | 8.0 | 0.00 | 0.00 | 0.00 | 54 | 1017.0 |
| 20260831234454 | 31 | 157 | 4.8 | 9.7 | 0.00 | 0.00 | 0.00 | 53 | 1017.0 |
| 20260831233442 | 32 | 154 | 3.2 | 9.7 | 0.00 | 0.00 | 0.00 | 54 | 1017.0 |
| 20260831232430 | 32 | 159 | 3.2 | 8.0 | 0.00 | 0.00 | 0.00 | 52 | 1017.0 |
| 20260831231419 | 32 | 151 | 4.8 | 12.9 | 0.00 | 0.00 | 0.00 | 50 | 1017.0 |
| 20260831230406 | 32 | 151 | 4.8 | 14.5 | 0.00 | 0.00 | 0.00 | 51 | 1017.0 |
| 20260831223331 | 33 | 146 | 4.8 | 14.5 | 0.00 | 0.00 | 0.00 | 47 | 1017.0 |
| 20260831222320 | 33 | 146 | 6.4 | 16.1 | 0.00 | 0.00 | 0.00 | 45 | 1017.0 |
| 20260831220256 | 34 | 147 | 4.8 | 14.5 | 0.00 | 0.00 | 0.00 | 43 | 1017.0 |
| 20260831215245 | 34 | 148 | 6.4 | 12.9 | 0.00 | 0.00 | 0.00 | 43 | 1017.0 |
| 20260831214234 | 35 | 148 | 4.8 | 14.5 | 0.00 | 0.00 | 0.00 | 42 | 1017.0 |
| 20260831213222 | 35 | 157 | 3.2 | 11.3 | 0.00 | 0.00 | 0.00 | 41 | 1017.0 |
| 20260831212210 | 35 | 150 | 4.8 | 16.1 | 0.00 | 0.00 | 0.00 | 42 | 1017.0 |
| 20260831211158 | 36 | 148 | 3.2 | 14.5 | 0.00 | 0.00 | 0.00 | 40 | 1017.0 |
| 20260831210146 | 36 | 147 | 3.2 | 11.3 | 0.00 | 0.00 | 0.00 | 41 | 1017.0 |
| 20260831205135 | 36 | 136 | 3.2 | 9.7 | 0.00 | 0.00 | 0.00 | 41 | 1017.0 |
| 20260831204123 | 35 | 152 | 4.8 | 12.9 | 0.00 | 0.00 | 0.00 | 43 | 1017.0 |
| 20260831203112 | 36 | 152 | 4.8 | 16.1 | 0.00 | 0.00 | 0.00 | 41 | 1017.0 |
| 20260831202100 | 35 | 149 | 4.8 | 14.5 | 0.00 | 0.00 | 0.00 | 41 | 1017.0 |
| 20260831201049 | 35 | 141 | 8.0 | 16.1 | 0.00 | 0.00 | 0.00 | 42 | 1017.0 |
| 20260831200037 | 35 | 134 | 6.4 | 14.5 | 0.00 | 0.00 | 0.00 | 39 | 1017.0 |
| 20260831193009 | 36 | 157 | 3.2 | 8.0 | 0.00 | 0.00 | 0.00 | 35 | 1017.0 |
| 20260831191957 | 36 | 134 | 4.8 | 14.5 | 0.00 | 0.00 | 0.00 | 40 | 1017.0 |
| 20260831190946 | 36 | 152 | 3.2 | 14.5 | 0.00 | 0.00 | 0.00 | 38 | 1017.0 |
| 20260831185934 | 35 | 142 | 6.4 | 16.1 | 0.00 | 0.00 | 0.00 | 40 | 1017.0 |
| 20260831184922 | 36 | 50 | 3.2 | 11.3 | 0.00 | 0.00 | 0.00 | 39 | 1017.0 |
| 20260831183911 | 36 | 357 | 1.6 | 6.4 | 0.00 | 0.00 | 0.00 | 38 | 1017.0 |
| 20260831182900 | 35 | 136 | 4.8 | 12.9 | 0.00 | 0.00 | 0.00 | 42 | 1017.0 |
| 20260831181848 | 36 | 144 | 3.2 | 8.0 | 0.00 | 0.00 | 0.00 | 39 | 1017.0 |
| 20260831180836 | 36 | 131 | 3.2 | 11.3 | 0.00 | 0.00 | 0.00 | 41 | 1017.0 |
| 20260831175825 | 35 | 185 | 3.2 | 8.0 | 0.00 | 0.00 | 0.00 | 40 | 1017.0 |
| 20260831174813 | 35 | 144 | 4.8 | 12.9 | 0.00 | 0.00 | 0.00 | 41 | 1017.0 |
| 20260831173801 | 35 | 128 | 3.2 | 11.3 | 0.00 | 0.00 | 0.00 | 42 | 1017.0 |
| 20260831172750 | 35 | 143 | 3.2 | 9.7 | 0.00 | 0.00 | 0.00 | 41 | 1017.0 |
| 20260831171738 | 34 | 153 | 4.8 | 17.7 | 0.00 | 0.00 | 0.00 | 44 | 1017.0 |
| 20260831170726 | 34 | 145 | 3.2 | 9.7 | 0.00 | 0.00 | 0.00 | 44 | 1017.0 |
| 20260831165715 | 33 | 143 | 3.2 | 9.7 | 0.00 | 0.00 | 0.00 | 46 | 1017.0 |
| 20260831164703 | 34 | 168 | 3.2 | 11.3 | 0.00 | 0.00 | 0.00 | 45 | 1017.0 |
| 20260831163652 | 33 | 288 | 3.2 | 11.3 | 0.00 | 0.00 | 0.00 | 43 | 1017.0 |
| 20260831161629 | 33 | 173 | 3.2 | 9.7 | 0.00 | 0.00 | 0.00 | 44 | 1017.0 |
| 20260831160617 | 33 | 136 | 3.2 | 8.0 | 0.00 | 0.00 | 0.00 | 46 | 1017.0 |
| 20260831155605 | 33 | 170 | 3.2 | 8.0 | 0.00 | 0.00 | 0.00 | 45 | 1017.0 |
| 20260831154554 | 32 | 148 | 3.2 | 12.9 | 0.00 | 0.00 | 0.00 | 47 | 1017.0 |
| 20260831153542 | 32 | 142 | 3.2 | 9.7 | 0.00 | 0.00 | 0.00 | 47 | 1017.0 |
| 20260831152531 | 32 | 161 | 3.2 | 9.7 | 0.00 | 0.00 | 0.00 | 48 | 1017.0 |
| 20260831150525 | 31 | 150 | 3.2 | 9.7 | 0.00 | 0.00 | 0.00 | 47 | 1017.0 |
| 20260831143450 | 30 | 152 | 4.8 | 12.9 | 0.00 | 0.00 | 0.00 | 51 | 1017.0 |
| 20260831142451 | 30 | 151 | 3.2 | 14.5 | 0.00 | 0.00 | 0.00 | 51 | 1017.0 |
| 20260831141440 | 29 | 156 | 4.8 | 11.3 | 0.00 | 0.00 | 0.00 | 52 | 1017.0 |
| 20260831135417 | 28 | 136 | 3.2 | 8.0 | 0.00 | 0.00 | 0.00 | 57 | 1017.0 |